GW6589 Weather Reports


time (UTC)temp
F
wind
direction
speed
knots
gust
knots
rain 1hr
in
rain 24hr
in
rain mn
in
humidity
%
barometer
mb
20260504184339 73 277 3.5 6.1 0.00 0.00 0.18 47 1015.6
20260504183408 73 241 0.0 4.3 0.00 0.00 0.18 45 1015.6
20260504182847 73 114 0.0 4.3 0.00 0.00 0.18 48 1015.9
20260504182339 73 256 2.6 5.2 0.00 0.00 0.18 48 1016.3
20260504181841 73 277 0.9 3.5 0.00 0.00 0.18 49 1016.3
20260504181341 73 47 0.9 2.6 0.00 0.00 0.18 49 1016.3
20260504180840 71 220 1.7 3.5 0.00 0.00 0.18 50 1016.3
20260504180340 71 81 5.2 5.2 0.00 0.00 0.18 48 1016.3
20260504175840 71 267 1.7 3.5 0.00 0.00 0.18 51 1016.6
20260504175339 71 275 2.6 4.3 0.00 0.00 0.18 52 1016.3
20260504174840 71 262 2.6 3.5 0.00 0.00 0.18 51 1016.3
20260504174339 70 304 0.0 6.1 0.00 0.00 0.18 52 1016.9
20260504173840 70 146 1.7 2.6 0.00 0.00 0.18 52 1016.6
20260504173340 70 279 1.7 4.3 0.00 0.00 0.18 52 1016.6
20260504172840 70 246 1.7 2.6 0.00 0.00 0.18 56 1016.6
20260504172341 69 277 1.7 4.3 0.00 0.00 0.18 55 1016.6
20260504171840 69 186 1.7 2.6 0.00 0.00 0.18 54 1016.6
20260504171341 69 94 1.7 4.3 0.00 0.00 0.18 55 1016.6
20260504170839 69 244 1.7 5.2 0.00 0.00 0.18 55 1017.3
20260504170341 69 248 1.7 3.5 0.00 0.00 0.18 56 1016.9
20260504160340 66 230 2.6 4.3 0.00 0.00 0.18 66 1018.3
20260504150840 59 86 1.7 2.6 0.00 0.00 0.18 83 1019.0
20260504150341 58 141 0.0 4.3 0.00 0.00 0.18 83 1019.0
20260504140840 52 92 1.7 3.5 0.00 0.00 0.18 97 1019.6
20260504140340 52 93 2.6 2.6 0.00 0.00 0.18 97 1019.6
20260504130341 48 80 0.0 3.5 0.19 0.00 0.17 96 1020.3
20260504110340 42 138 1.7 2.6 0.00 0.00 0.00 93 1018.6
20260504100340 43 89 0.0 4.3 0.00 0.00 0.00 91 1017.9
20260504081840 42 300 0.0 2.6 0.00 0.00 0.00 89 1018.6
20260504081340 42 76 2.6 4.3 0.00 0.00 0.00 90 1018.6
20260504080840 42 243 1.7 3.5 0.00 0.00 0.00 90 1018.6
20260504080339 42 119 0.0 2.6 0.00 0.00 0.00 89 1018.3
20260504070341 41 269 0.0 4.3 0.00 0.00 0.00 88 1019.0
20260504050340 43 269 0.0 0.9 0.00 0.00 0.00 81 1019.3
20260504045839 43 107 0.0 0.0 0.00 0.00 0.00 80 1019.3
20260504045340 43 224 0.0 0.9 0.00 0.00 0.00 79 1019.6
20260504044839 43 99 0.0 1.7 0.00 0.00 0.00 81 1019.3
20260504044339 43 245 0.9 0.9 0.00 0.00 0.00 80 1019.3
20260504043840 43 39 0.0 0.0 0.00 0.00 0.00 80 1019.6
20260504043340 43 78 0.0 0.9 0.00 0.00 0.00 81 1019.3
20260504042839 43 224 0.0 0.0 0.00 0.00 0.00 80 1019.3
20260504042340 43 249 0.0 0.9 0.00 0.00 0.00 80 1019.3
20260504041839 43 221 0.0 1.7 0.00 0.00 0.00 79 1019.3
20260504041340 43 235 0.0 0.0 0.00 0.00 0.00 79 1019.0
20260504040840 43 81 0.0 0.9 0.00 0.00 0.00 78 1019.0
20260504040340 43 76 0.0 0.0 0.00 0.00 0.00 78 1018.6
20260504035839 43 147 0.0 0.0 0.00 0.00 0.00 78 1019.0
20260504035342 43 50 0.0 1.7 0.00 0.00 0.00 78 1019.0
20260504034839 43 117 0.0 0.0 0.00 0.00 0.00 78 1019.0
20260504034340 43 129 0.0 0.0 0.00 0.00 0.00 78 1019.0
20260504033840 43 76 0.0 0.0 0.00 0.00 0.00 78 1019.0
20260504032853 43 229 0.0 0.9 0.00 0.00 0.00 80 1018.6
20260504032339 42 32 0.0 0.0 0.00 0.00 0.00 80 1018.6
20260504031839 42 234 0.0 0.9 0.00 0.00 0.00 79 1019.0
20260504031339 42 136 0.0 0.0 0.00 0.00 0.00 80 1018.6
20260504030839 43 157 0.0 0.0 0.00 0.00 0.00 79 1019.0
20260504030339 43 185 0.0 0.0 0.00 0.00 0.00 79 1019.0
20260504025840 43 217 0.0 0.0 0.00 0.00 0.00 79 1019.0
20260504025340 43 229 0.0 0.0 0.00 0.00 0.00 77 1019.0
20260504024840 43 141 0.0 0.0 0.00 0.00 0.00 77 1019.0
20260504024339 43 129 0.0 0.9 0.00 0.00 0.00 78 1019.0
20260504023839 44 76 0.0 0.9 0.00 0.00 0.00 78 1018.6
20260504023340 44 230 0.0 0.9 0.00 0.00 0.00 74 1018.6
20260504022840 44 76 0.0 0.0 0.00 0.00 0.00 76 1018.6
20260504022339 44 89 0.0 0.0 0.00 0.00 0.00 76 1018.6
20260504021840 44 130 0.0 0.0 0.00 0.00 0.00 75 1018.3
20260504021339 44 224 0.0 0.9 0.00 0.00 0.00 73 1018.6
20260504020839 45 124 0.0 0.9 0.00 0.00 0.00 75 1018.6
20260504020340 45 37 0.0 1.7 0.00 0.00 0.00 74 1018.6
20260504015840 45 249 0.0 0.0 0.00 0.00 0.00 71 1018.6
20260504015339 45 49 0.0 0.0 0.00 0.00 0.00 73 1018.6
20260504014839 45 139 0.0 0.0 0.00 0.00 0.00 73 1018.6
20260504014339 46 97 0.0 0.9 0.00 0.00 0.00 74 1018.6
20260504013840 46 246 0.0 0.0 0.00 0.00 0.00 73 1018.3
20260504013340 46 236 0.9 1.7 0.00 0.00 0.00 71 1018.3
20260504012839 46 45 0.9 1.7 0.00 0.00 0.00 72 1017.9
20260504012339 46 62 0.0 0.9 0.00 0.00 0.00 73 1018.3
20260504011839 47 243 0.0 0.9 0.00 0.00 0.00 71 1017.9
20260504011340 47 38 0.0 0.0 0.00 0.00 0.00 71 1018.3
20260504010840 47 42 0.0 1.7 0.00 0.00 0.00 72 1018.3
20260504010339 48 230 0.0 0.9 0.00 0.00 0.00 71 1018.3
20260504005840 48 82 0.0 0.9 0.00 0.00 0.00 69 1017.9
20260504005340 48 94 0.9 0.9 0.00 0.00 0.00 70 1018.3
20260504004839 48 263 0.0 0.9 0.00 0.00 0.00 67 1018.6
20260504004339 49 76 0.0 0.0 0.00 0.00 0.00 73 1017.9
20260504003839 49 108 0.0 0.0 0.00 0.00 0.00 70 1018.3
20260504003340 49 173 0.0 0.0 0.00 0.00 0.00 68 1017.9
20260504002840 50 235 0.0 0.0 0.00 0.00 0.00 70 1017.9
20260504002339 50 55 0.0 0.9 0.00 0.00 0.00 67 1017.9
20260504001839 50 154 0.0 0.0 0.00 0.00 0.00 67 1017.9
20260504001339 51 310 0.0 1.7 0.00 0.00 0.00 66 1017.6
20260504000840 51 253 0.0 1.7 0.00 0.00 0.00 67 1017.9
20260504000339 51 162 0.0 0.9 0.00 0.00 0.00 65 1018.3
20260503235839 52 322 0.0 0.0 0.00 0.00 0.00 65 1018.3
20260503235339 52 129 0.0 0.9 0.00 0.00 0.00 65 1018.3
20260503234839 52 135 0.0 0.9 0.00 0.00 0.00 63 1017.9
20260503234340 53 236 0.0 1.7 0.00 0.00 0.00 60 1017.9
20260503233841 53 44 0.0 0.0 0.00 0.00 0.00 59 1017.9
20260503233340 53 135 0.0 1.7 0.00 0.00 0.00 62 1017.9
20260503232839 54 37 0.0 1.7 0.00 0.00 0.00 62 1017.6
20260503232339 54 44 0.0 0.9 0.00 0.00 0.00 59 1017.9
20260503231840 54 97 0.0 0.9 0.00 0.00 0.00 57 1017.6
20260503231339 55 299 0.0 0.9 0.00 0.00 0.00 58 1017.9
20260503230839 56 214 0.0 0.0 0.00 0.00 0.00 55 1017.9
20260503230340 56 166 0.0 0.9 0.00 0.00 0.00 52 1017.9
20260503225839 57 192 0.9 1.7 0.00 0.00 0.00 52 1017.9
20260503225339 58 53 0.9 2.6 0.00 0.00 0.00 47 1017.9
20260503224840 58 183 0.0 2.6 0.00 0.00 0.00 47 1018.3
20260503224339 59 213 2.6 2.6 0.00 0.00 0.00 43 1018.3
20260503223840 60 53 0.0 1.7 0.00 0.00 0.00 42 1018.6
20260503223340 60 176 0.0 4.3 0.00 0.00 0.00 34 1018.3
20260503222839 60 233 1.7 3.5 0.00 0.00 0.00 42 1018.6
20260503222340 60 244 1.7 2.6 0.00 0.00 0.00 43 1018.6
20260503221840 61 269 0.0 0.9 0.00 0.00 0.00 38 1018.6
20260503221340 62 245 1.7 5.2 0.00 0.00 0.00 31 1018.6
20260503220839 63 349 0.9 1.7 0.00 0.00 0.00 34 1019.0
20260503220340 63 246 4.3 7.8 0.00 0.00 0.00 31 1019.0
20260503215840 63 227 3.5 5.2 0.00 0.00 0.00 32 1019.0
20260503215340 62 253 2.6 8.7 0.00 0.00 0.00 30 1019.0
20260503214840 63 258 1.7 2.6 0.00 0.00 0.00 31 1019.0
20260503214340 63 261 1.7 3.5 0.00 0.00 0.00 33 1019.0
20260503213839 63 242 4.3 6.1 0.00 0.00 0.00 30 1019.0
20260503213340 64 265 1.7 3.5 0.00 0.00 0.00 31 1019.0
20260503212839 65 243 0.9 1.7 0.00 0.00 0.00 28 1019.0
20260503212339 65 242 1.7 2.6 0.00 0.00 0.00 28 1019.0
20260503211839 65 157 0.0 2.6 0.00 0.00 0.00 29 1019.3
20260503211339 64 239 5.2 6.1 0.00 0.00 0.00 29 1019.3
20260503210839 65 247 5.2 5.2 0.00 0.00 0.00 31 1019.6
20260503210339 64 261 1.7 3.5 0.00 0.00 0.00 28 1019.6
20260503205839 64 220 1.7 2.6 0.00 0.00 0.00 28 1020.0
20260503205339 64 239 1.7 3.5 0.00 0.00 0.00 30 1019.6
20260503204839 64 22 0.9 3.5 0.00 0.00 0.00 27 1019.6
20260503204341 65 247 4.3 7.8 0.00 0.00 0.00 27 1020.0
20260503203839 65 228 1.7 1.7 0.00 0.00 0.00 27 1020.0
20260503203339 65 128 1.7 5.2 0.00 0.00 0.00 27 1020.0
20260503202839 64 281 0.0 2.6 0.00 0.00 0.00 27 1020.0
20260503202339 65 101 1.7 1.7 0.00 0.00 0.00 26 1020.3
20260503201840 63 234 2.6 3.5 0.00 0.00 0.00 28 1020.3
20260503201340 64 355 0.9 2.6 0.00 0.00 0.00 26 1020.0
20260503200839 63 8 0.0 1.7 0.00 0.00 0.00 27 1020.7
20260503200339 64 25 0.9 4.3 0.00 0.00 0.00 27 1020.7
20260503195839 64 250 3.5 5.2 0.00 0.00 0.00 28 1021.0
20260503195339 64 264 3.5 7.0 0.00 0.00 0.00 27 1021.0
20260503194840 64 84 2.6 7.8 0.00 0.00 0.00 29 1021.0
20260503194339 64 229 0.9 2.6 0.00 0.00 0.00 33 1021.0
20260503193839 64 59 1.7 4.3 0.00 0.00 0.00 28 1021.3
20260503193339 64 150 0.0 3.5 0.00 0.00 0.00 29 1021.3
20260503192839 63 334 0.0 2.6 0.00 0.00 0.00 33 1021.7
20260503192339 62 235 4.3 4.3 0.00 0.00 0.00 30 1021.3
20260503191839 62 85 4.3 7.0 0.00 0.00 0.00 29 1022.0
20260503191339 62 179 1.7 3.5 0.00 0.00 0.00 30 1022.0
20260503190840 62 245 5.2 6.1 0.00 0.00 0.00 31 1022.0
20260503190339 62 302 0.9 3.5 0.00 0.00 0.00 29 1022.0
20260503185839 62 212 0.9 6.1 0.00 0.00 0.00 30 1022.4
20260503185340 60 94 0.0 2.6 0.00 0.00 0.00 31 1022.4
20260503184840 61 75 0.9 2.6 0.00 0.00 0.00 29 1022.7